This is the latest recevied weather packets stored in our database for station/object W4JCW. If no packets are shown the sender has not sent any weather packets the latest 1 day(s).
| Time | Temp. | Humidity | Pressure | Rain* | Wind** | Luminosity | Snow |
|---|---|---|---|---|---|---|---|
| 1778095428 | 26.67° C | 58% | 1012.2 hPa | 0 mm | - | 968 W/m² | - |
| 1778093305 | 26.11° C | 57% | 1012.3 hPa | 0 mm | - | 384 W/m² | - |
| 1778091185 | 25.56° C | 65% | 1012.9 hPa | 0 mm | - | 213 W/m² | - |
| 1778089365 | 24.44° C | 68% | 1013.3 hPa | 0 mm | - | 320 W/m² | - |
| 1778088760 | 24.44° C | 67% | 1013.5 hPa | 0 mm | - | 196 W/m² | - |
| 1778087851 | 25° C | 67% | 1014.1 hPa | 0 mm | - | 283 W/m² | - |
| 1778087548 | 24.44° C | 68% | 1013.9 hPa | 0 mm | - | 354 W/m² | - |
| 1778086337 | 23.89° C | 69% | 1014.4 hPa | 0 mm | - | 293 W/m² | - |
| 1778083910 | 22.78° C | 70% | 1014.5 hPa | 0 mm | - | 251 W/m² | - |
| 1778083003 | 22.78° C | 71% | 1014.3 hPa | 0 mm | - | 255 W/m² | - |
| 1778082700 | 22.78° C | 71% | 1014.2 hPa | 0 mm | - | 321 W/m² | - |
| 1778080650 | 22.22° C | 72% | 1014 hPa | 0 mm | - | 253 W/m² | - |
| 1778080042 | 21.67° C | 72% | 1014.1 hPa | 0 mm | - | 254 W/m² | - |
| 1778079133 | 21.11° C | 73% | 1014.2 hPa | 0 mm | - | 232 W/m² | - |
| 1778078225 | 21.11° C | 72% | 1014.1 hPa | 0 mm | - | 178 W/m² | - |
| 1778077621 | 21.11° C | 73% | 1014 hPa | 0 mm | - | 212 W/m² | - |
| 1778077016 | 20.56° C | 73% | 1014.2 hPa | 0 mm | - | 219 W/m² | - |
| 1778076714 | 20.56° C | 74% | 1014.1 hPa | 0 mm | - | 203 W/m² | - |
| 1778075805 | 20° C | 76% | 1014.3 hPa | 0 mm | - | 236 W/m² | - |
| 1778075198 | 20° C | 76% | 1014 hPa | 0 mm | - | 161 W/m² | - |
| 1778074288 | 19.44° C | 79% | 1014.1 hPa | 0 mm | - | 173 W/m² | - |
| 1778073380 | 18.33° C | 80% | 1013.8 hPa | 0 mm | - | 142 W/m² | - |
| 1778073076 | 18.33° C | 82% | 1014.2 hPa | 0 mm | - | 159 W/m² | - |
| 1778072773 | 18.33° C | 82% | 1014.3 hPa | 0 mm | - | 124 W/m² | - |
| 1778071866 | 17.22° C | 85% | 1014.3 hPa | 0 mm | - | 119 W/m² | - |
* Rain latest hour (hover to see other rain measurements)
** Current wind speed in m/s (hover to see current wind gust speed)